Location: Moscow
(55.7500°N, 37.5830°E)
Time: 07:03:27
(UTC+03:00)

N. Korean satellite - Pass Details

Date: 26 October 2021
Orbit: 446 x 495 km, 97.3° (Epoch: 04 December)

Event Time Altitude Azimuth Distance (km) Brightness Sun altitude
Rises 06:00:05 0° 14° (NNE) 2,603 10.4 -12.2°
Reaches altitude 10° 06:02:11 10° 15° (NNE) 1,713 9.5 -11.9°
Maximum altitude 06:05:53 83° 104° (ESE) 507 6.7 -11.4°
Drops below altitude 10° 06:09:31 10° 193° (SSW) 1,684 9.2 -10.9°
Sets 06:11:34 0° 194° (SSW) 2,554 10.2 -10.6°
